Weather History for Zacatecas Airport, Mexico

Change the Weather History Date:

Friday, October 14, 2011

  Actual Average Record
Temperature  
Mean Temperature 60 °F -  
Max Temperature 73 °F 72 °F 87 °F (1999)
Min Temperature 46 °F 46 °F 39 °F (2001)
Degree Days  
Heating Degree Days 6    
Growing Degree Days 10 (Base 50)    
Moisture  
Dew Point 45 °F    
Average Humidity 63    
Maximum Humidity 82    
Minimum Humidity 38    
Precipitation  
Precipitation 0.00 in - - ()
Sea Level Pressure  
Sea Level Pressure 30.23 in    
Wind  
Wind Speed 5 mph ()    
Max Wind Speed 13 mph    
Max Gust Speed -    
Visibility 9.0 miles    
Events      
Averages and records for this station are not official NWS values.
T = Trace of Precipitation, MM = Missing Value Source: Averaged Metar Reports

Daily Weather History Graph

Daily Weather History Graph

Search for Another Location

Airport:

Trip Planner

Search our weather history database for the weather conditions in past years. The results will help you decide how hot, cold, wet, or windy it might be!

Date:

Astronomy

Oct. 14, 2011 Rise Set
Actual Time 7:46 AM CDT 7:26 PM CDT
Civil Twilight 7:24 AM CDT 7:48 PM CDT
Nautical Twilight 6:58 AM CDT 8:14 PM CDT
Astronomical Twilight 6:32 AM CDT 8:41 PM CDT
Moon 9:05 PM CDT (10/14) 9:54 AM CDT (10/14)
Length of Visible Light 12h 24m
Length of Day
11h 39m
Waning Gibbous, 94% of the Moon is Illuminated
Oct 14
Waning Gibbous
Oct 19
Last Quarter
Oct 26
New
Nov 2
First Quarter
Nov 10
Full

Hourly Weather History & Observations

Time (CDT) Temp. Windchill Dew Point Humidity Pressure Visibility Wind Dir Wind Speed Gust Speed Precip Events Conditions
12:52 AM 53.6 °F - 44.6 °F 72% 30.25 in 8.0 mi SSW 3.5 mph - N/A   Clear
3:07 AM 51.8 °F - 44.6 °F 76% 30.22 in 8.0 mi South 6.9 mph - N/A   Clear
3:51 AM 48.2 °F - 42.8 °F 82% 30.22 in 9.0 mi SW 5.8 mph - N/A   Clear
4:52 AM 48.2 °F - 42.8 °F 82% 30.21 in 8.0 mi Calm Calm - N/A   Clear
6:06 AM 46.4 °F 44.3 °F 41.0 °F 81% 30.21 in 10.0 mi NE 4.6 mph - N/A   Clear
6:45 AM 46.4 °F 45.2 °F 41.0 °F 81% 30.22 in 10.0 mi ESE 3.5 mph - N/A   Clear
7:42 AM 46.4 °F 45.2 °F 41.0 °F 81% 30.24 in 6.0 mi ENE 3.5 mph - N/A   Scattered Clouds
8:43 AM 48.2 °F - 42.8 °F 82% 30.26 in 6.0 mi Calm Calm - N/A   Scattered Clouds
9:40 AM 55.4 °F - 48.2 °F 77% 30.28 in 8.0 mi Calm Calm - N/A   Scattered Clouds
10:45 AM 62.6 °F - 48.2 °F 59% 30.29 in 8.0 mi SE 9.2 mph - N/A   Scattered Clouds
11:43 AM 64.4 °F - 48.2 °F 56% 30.29 in 8.0 mi ESE 12.7 mph - N/A   Scattered Clouds
12:43 PM 66.2 °F - 48.2 °F 52% 30.28 in 8.0 mi East 12.7 mph - N/A   Scattered Clouds
2:43 PM 69.8 °F - 46.4 °F 43% 30.22 in 10.0 mi East 11.5 mph - N/A   Scattered Clouds
3:43 PM 71.6 °F - 44.6 °F 38% 30.19 in 10.0 mi Calm Calm - N/A   Scattered Clouds
4:43 PM 73.4 °F - 46.4 °F 38% 30.18 in 10.0 mi NE 11.5 mph - N/A   Scattered Clouds
5:43 PM 71.6 °F - 44.6 °F 38% 30.18 in 10.0 mi ENE 6.9 mph - N/A   Scattered Clouds
6:43 PM 69.8 °F - 44.6 °F 40% 30.19 in 10.0 mi East 5.8 mph - N/A   Scattered Clouds
7:43 PM 64.4 °F - 46.4 °F 52% 30.19 in 10.0 mi Calm Calm - N/A   Scattered Clouds
8:43 PM 60.8 °F - 44.6 °F 55% 30.21 in 10.0 mi SE 6.9 mph - N/A   Scattered Clouds
9:54 PM 60.8 °F - 42.8 °F 52% 30.23 in 10.0 mi SE 6.9 mph - N/A   Scattered Clouds
11:02 PM 55.4 °F - 46.4 °F 72% 30.25 in 10.0 mi WSW 5.8 mph - N/A   Scattered Clouds
11:42 PM 57.2 °F - 46.4 °F 67% 30.26 in 10.0 mi WSW 4.6 mph - N/A   Scattered Clouds